User: anonymous   Login
Location: Holcomb Observatory
(44.4922°N, 73.1654°W)
Time: 05:22:58
(UTC-04:00)
Language:

SL-16 R/B - Orbit

View from above orbital plane
View from above orbital plane
View from above satellite
View from above satellite

Ground track
Ground track

The orbit data is extracted from the following two-line orbital elements,

1 27006U 01056F   15086.09083683  .00000043  00000-0  95451-4 0  9999
2 27006 099.1953 246.3813 0013742 272.1931 196.8678 13.70947771665088
Epoch (UTC): 27 March 2015 02:10:48
Eccentricity: 0.0013742
inclination: 99.1953°
perigee height: 986 km
apogee height: 1006 km
right ascension of ascending node: 246.3813°
argument of perigee: 272.1931°
revolutions per day: 13.70947771
mean anomaly at epoch: 196.8678°
orbit number at epoch: 66508

The dashed part of the orbit path shows where the satellite is in the earth's shadow,  

DLR